• Join FlightAware (Why Join?)
  • Login
  • US Flag 
01:36AM EDT


 

Airport Tracker/Info


-or-


 

Live Flight TrackerFlight Track Log ✈ SWA2894 ✈ 14-Jun-2013 ✈ KOAK - KLAX

Flight Track Log - Related Links

Times and Time Zones

All times are in EDT time to prevent confusion due to time zone crossing. See the SWA2894 flight status page for this flight to view local times or setup timezone preferences in your user account.

Time Position Orientation Groundspeed Altitude Reporting Facility
EDT Latitude Longitude Course Direction KTS MPH feet Rate Location/Type
12:13PM 37.7167 -122.2500 310° West 163 188 700  Level Northern Cal TRACON
12:14PM 37.7500 -122.3000 310° West 219 252 2,600 2,640 Climbing Northern Cal TRACON
12:15PM 37.7333 -122.3833 256° West 250 288 6,000 3,120 Climbing Northern Cal TRACON
12:16PM 37.6667 -122.4167 202° Southwest 286 329 9,200 2,880 Climbing Northern Cal TRACON
12:17PM 37.5833 -122.4500 198° South 333 383 11,900 2,640 Climbing Northern Cal TRACON
12:18PM 37.5333 -122.4553 185° South 342 394 13,800 3,540 Climbing Oakland Center
12:19PM 37.4467 -122.3494 136° Southeast 371 427 18,000 2,640 Climbing Oakland Center
12:20PM 37.3744 -122.2508 133° Southeast 382 440 19,300 1,980 Climbing Oakland Center
12:21PM 37.2997 -122.1503 133° Southeast 393 452 22,100 2,580 Climbing Oakland Center
12:22PM 37.2233 -122.0464 133° Southeast 405 466 24,700 2,340 Climbing Oakland Center
12:23PM 37.1428 -121.9392 133° Southeast 420 483 26,900 2,040 Climbing Oakland Center
12:24PM 37.0603 -121.8267 133° Southeast 437 503 28,900 1,860 Climbing Oakland Center
12:25PM 36.9731 -121.7156 134° Southeast 447 514 30,800 2,280 Climbing Oakland Center
12:26PM 36.8706 -121.5783 133° Southeast 449 517 33,600 2,280 Climbing Oakland Center
12:27PM 36.7842 -121.4614 133° Southeast 444 511 35,500 1,620 Climbing Oakland Center
12:28PM 36.7000 -121.3494 133° Southeast 442 509 37,000 720 Climbing Oakland Center
12:29PM 36.6158 -121.2372 133° Southeast 445 512 37,000  Level Oakland Center
12:30PM 36.5308 -121.1269 134° Southeast 442 509 37,000  Level Oakland Center
12:31PM 36.4475 -121.0144 133° Southeast 443 510 37,000  Level Oakland Center
12:32PM 36.3633 -120.9036 133° Southeast 441 507 37,000  Level Oakland Center
12:33PM 36.2797 -120.7922 133° Southeast 441 507 37,000  Level Oakland Center
12:34PM 36.1936 -120.6836 134° Southeast 441 507 37,000  Level Oakland Center
12:35PM 36.1097 -120.5714 133° Southeast 443 510 37,000  Level Oakland Center
12:36PM 36.0081 -120.4403 134° Southeast 441 507 37,000  Level Oakland Center
12:37PM 35.9211 -120.3311 135° Southeast 443 510 37,000  Level Oakland Center
12:38PM 35.8369 -120.2217 133° Southeast 440 506 37,000  Level Oakland Center
12:39PM 35.7514 -120.1119 134° Southeast 441 507 37,000  Level Oakland Center
12:40PM 35.6669 -120.0028 134° Southeast 439 505 37,000  Level Oakland Center
12:41PM 35.5708 -119.9106 142° Southeast 435 501 37,000  Level Oakland Center
12:42PM 35.4711 -119.8269 146° Southeast 432 497 37,000  Level Oakland Center
12:43PM 35.3717 -119.7417 145° Southeast 433 498 37,000  Level Oakland Center
12:44PM 35.2533 -119.6386 145° Southeast 434 499 37,000  Level Los Angeles Center
12:45PM 35.1531 -119.5533 145° Southeast 435 501 37,000 -480 Level Los Angeles Center
12:46PM 35.0536 -119.4672 145° Southeast 438 504 36,100 -1,920 Descending Los Angeles Center
12:47PM 34.9528 -119.3833 146° Southeast 438 504 33,100 -3,120 Descending Los Angeles Center
12:48PM 34.8314 -119.2797 145° Southeast 443 510 29,700 -3,000 Descending Los Angeles Center
12:49PM 34.7317 -119.1967 146° Southeast 437 503 26,900 -2,460 Descending Los Angeles Center
12:51PM 34.6378 -119.1158 145° Southeast 426 490 24,600 -2,280 Descending Los Angeles Center
12:52PM 34.5483 -119.0439 146° Southeast 408 470 22,200 -2,760 Descending Los Angeles Center
12:53PM 34.4389 -118.9514 145° Southeast 397 457 18,900 -2,880 Descending Los Angeles Center
12:54PM 34.3489 -118.8786 146° Southeast 388 447 16,300 -2,640 Descending Los Angeles Center
12:55PM 34.2511 -118.8442 164° South 365 420 13,500 -2,100 Descending Los Angeles Center
12:56PM 34.1594 -118.8092 162° South 345 397 12,000 -780 Descending Los Angeles Center
12:57PM 34.0639 -118.7725 162° South 325 374 11,900 -600 Descending Los Angeles Center
12:58PM 34.0303 -118.6722 112° Southeast 314 361 10,800 -1,320 Descending Los Angeles Center
12:59PM 34.0211 -118.5739 96° East 296 341 9,200 -1,500 Descending Los Angeles Center
01:00PM 34.0114 -118.4739 97° East 298 343 7,800 -1,500 Descending Los Angeles Center
01:01PM 34.0186 -118.3792 85° East 288 331 6,100 -1,680 Descending Los Angeles Center
01:02PM 34.0289 -118.2856 82° East 284 327 4,400 -1,620 Descending Los Angeles Center
01:03PM 34.0364 -118.1961 84° East 272 313 2,800 -900 Descending Los Angeles Center
01:04PM 34.0436 -118.1225 83° East 232 267 2,600 -240 Descending Los Angeles Center
01:05PM 33.9950 -118.1175 175° South 203 234 2,400 -240 Descending Los Angeles Center
01:06PM 33.9750 -118.1778 248° West 198 228 2,200 -120 Descending Los Angeles Center
01:07PM 33.9683 -118.2439 263° West 200 230 2,200 -240 Level Los Angeles Center
01:08PM 33.9628 -118.3014 263° West 188 216 1,800 -660 Descending Los Angeles Center
01:09PM 33.9575 -118.3533 263° West 171 197 900 -840 Descending Los Angeles Center
01:10PM 33.9522 -118.4072 263° West 148 170 100 -780 Descending Los Angeles Center
01:12PM 33.9425 -118.4081 247° West  Level Estimated